Location: Unspecified
(0.0000°N, 0.0000°E)
Time: 18:54:25
(UTC+00:00)

THORAD AGENA D DEB - Visible Passes

Search period start: 09 November 2025 00:00
Search period end: 19 November 2025 00:00
Orbit: 1005 x 1264 km, 100.5° (Epoch: 01 September)

Date Brightness Start Highest point End Pass type
(mag) Time Alt. Az. Time Alt. Az. Time Alt. Az.
09 Nov ? 18:38:53 10° ESE 18:43:53 22° ENE 18:48:41 10° NNE visible
09 Nov ? 20:23:35 10° S 20:29:57 38° WSW 20:35:59 10° NW visible
10 Nov ? 19:48:12 10° S 19:55:12 81° WSW 20:01:46 10° NNW visible
11 Nov ? 19:13:46 10° SSE 19:20:23 48° ENE 19:24:18 23° NNE visible
11 Nov ? 21:02:11 10° SW 21:06:14 16° WSW 21:10:12 10° WNW visible
12 Nov ? 18:40:32 10° ESE 18:45:32 22° ENE 18:48:22 17° NE visible
12 Nov ? 20:25:21 10° S 20:31:35 36° WSW 20:36:21 15° NW visible
13 Nov ? 19:49:56 10° S 19:56:51 79° WSW 20:00:35 28° NNW visible
14 Nov ? 19:15:27 10° SSE 19:22:01 49° ENE 19:24:53 30° NNE visible
14 Nov ? 21:04:03 10° SW 21:07:52 16° WSW 21:11:36 10° WNW visible
15 Nov ? 18:42:10 10° SE 18:47:08 22° ENE 18:49:13 19° NE visible
15 Nov ? 20:27:05 10° S 20:33:12 35° WSW 20:37:15 18° NW visible
16 Nov ? 19:51:37 10° S 19:58:26 77° WSW 20:01:37 33° NNW visible
17 Nov ? 19:17:05 10° SSE 19:23:36 50° ENE 19:26:01 34° NNE visible
17 Nov ? 21:05:53 10° SW 21:09:27 15° WSW 21:12:57 10° WNW visible
18 Nov ? 18:43:45 10° SE 18:48:43 22° ENE 18:50:27 20° NE visible
18 Nov ? 20:28:47 10° SSW 20:34:46 34° WSW 20:38:29 19° NW visible
